Flag for U.S.A. Weather past 2 weeks in Tallahassee, Florida, U.S.A.

Now
93 °F

Broken clouds.


Feels Like: 99 °F
Forecast: 70 / 89 °F
Wind: 8 mph from Northwest

Location: Tallahassee Regional Airport

Current Time: Jul 1, 2015 at 3:24:10 PM

Latest Report: Jul 1, 2015 at 2:53 PM


Visibility: 10 mi

Pressure: 30.07 "Hg

Humidity: 47%

Dew point: 70 °F

Location of TallahasseeLocation

Historic Weather in Tallahassee — Graph

°F

Tallahassee temperature yesterday

Maximum temperature yesterday: 88 °F (at 10:53 AM)
Minimum temperature yesterday: 71 °F (at 9:53 PM)
Average temperature yesterday: 78 °F

Past Weeks' High & Low Weather Summary

 TemperatureHumidityPressure
High98 °F (Jun 21, 2:53 PM)97% (Jun 18, 2:53 AM)30.15 "Hg (Jun 18, 2:53 AM)
Low69 °F (Jul 1, 1:53 AM)40% (Jun 16, 3:53 PM)29.92 "Hg (Jun 28, 4:53 AM)
Average82 °F77%30.06 "Hg
* Reported Jun 16 1:53 PM — Jul 1 1:53 PM, Tallahassee, Weather by CustomWeather, © 2015

Note: Actual official high and low records may vary slightly from our data, if they occured in-between our weather recording intervals... More about our weather records

Advertising

Tallahassee weather history for previous 24 hours

 ConditionsComfort  
Time TempWeatherWind HumidityBarometerVisibility
1:53 PM
Wed, Jul 1
92 °FScattered clouds.12 mph49%30.09 "Hg10 mi
12:53 PM90 °FPassing clouds.8 mph54%30.11 "Hg10 mi
11:53 AM87 °FScattered clouds.8 mph59%30.11 "Hg10 mi
10:53 AM84 °FPartly sunny.8 mph63%30.12 "Hg10 mi
9:53 AM81 °FPartly sunny.6 mph74%30.11 "Hg10 mi
8:53 AM81 °FBroken clouds.7 mph88%30.10 "Hg10 mi
7:53 AM76 °FBroken clouds.5 mph91%30.11 "Hg10 mi
6:53 AM72 °FPassing clouds.No wind91%30.09 "Hg10 mi
5:53 AM70 °FPassing clouds.No wind90%30.10 "Hg10 mi
4:53 AM70 °FClear.No wind90%30.09 "Hg10 mi
3:53 AM69 °FClear.No wind93%30.09 "Hg10 mi
2:53 AM69 °FPassing clouds.No wind93%30.10 "Hg10 mi
1:53 AM69 °FClear.3 mph93%30.08 "Hg10 mi
12:53 AM70 °FClear.No wind93%30.07 "Hg7 mi
11:53 PM
Tue, Jun 30
71 °FFog.No wind93%30.08 "Hg6 mi
10:53 PM71 °FPassing clouds.5 mph90%30.08 "Hg10 mi
9:53 PM71 °FPassing clouds.3 mph90%30.05 "Hg10 mi
8:53 PM72 °FPartly sunny.3 mph91%30.05 "Hg10 mi
7:53 PM72 °FBroken clouds.5 mph93%30.03 "Hg10 mi
6:53 PM72 °FLight rain. Broken clouds.No wind91%30.05 "Hg10 mi
6:03 PM86 °FThunderstorms. Broken clouds.18 mph63%30.08 "Hg10 mi
4:53 PM87 °FBroken clouds.10 mph61%30.03 "Hg10 mi
3:53 PM86 °FBroken clouds.8 mph63%30.04 "Hg10 mi
Weather by CustomWeather, © 2015

See weather overviewHow to use our weather pages